| time (UTC) | temp F | wind direction | speed MPH | gust MPH | rain 1hr in | rain 24hr in | rain mn in | humidity % | barometer mb |
| 20260904041019 | 67 | 0 | 0.0 | 2.0 | 0.00 | 0.00 | 0.00 | 75 | 1011.4 |
| 20260904040520 | 67 | 0 | 0.0 | 2.0 | 0.00 | 0.00 | 0.00 | 75 | 1011.4 |
| 20260904035518 | 67 | 0 | 0.0 | 4.0 | 0.00 | 0.00 | 0.00 | 75 | 1011.3 |
| 20260904035019 | 67 | 0 | 0.0 | 4.0 | 0.00 | 0.00 | 0.00 | 75 | 1011.4 |
| 20260904034017 | 68 | 0 | 0.0 | 5.0 | 0.00 | 0.00 | 0.00 | 75 | 1011.4 |
| 20260904033520 | 68 | 253 | 1.0 | 8.0 | 0.00 | 0.00 | 0.00 | 75 | 1011.3 |
| 20260904033038 | 68 | 258 | 3.0 | 8.0 | 0.00 | 0.00 | 0.00 | 75 | 1011.3 |
| 20260904032518 | 68 | 275 | 3.0 | 8.0 | 0.00 | 0.00 | 0.00 | 75 | 1011.2 |
| 20260904032017 | 68 | 267 | 3.0 | 9.0 | 0.00 | 0.00 | 0.00 | 75 | 1011.2 |
| 20260904031537 | 68 | 275 | 5.0 | 9.0 | 0.00 | 0.00 | 0.00 | 74 | 1011.1 |
| 20260904030525 | 68 | 277 | 7.0 | 13.0 | 0.00 | 0.00 | 0.00 | 74 | 1011.0 |
| 20260904025518 | 68 | 277 | 7.0 | 12.0 | 0.00 | 0.00 | 0.00 | 74 | 1011.1 |
| 20260904025020 | 68 | 267 | 7.0 | 13.0 | 0.00 | 0.00 | 0.00 | 74 | 1011.2 |
| 20260904024020 | 69 | 280 | 7.0 | 12.0 | 0.00 | 0.00 | 0.00 | 73 | 1011.3 |
| 20260904023519 | 69 | 263 | 6.0 | 10.0 | 0.00 | 0.00 | 0.00 | 72 | 1011.4 |
| 20260904023037 | 69 | 286 | 4.0 | 11.0 | 0.00 | 0.00 | 0.00 | 72 | 1011.3 |
| 20260904022518 | 69 | 277 | 7.0 | 11.0 | 0.00 | 0.00 | 0.00 | 72 | 1011.3 |
| 20260904022021 | 69 | 268 | 6.0 | 10.0 | 0.00 | 0.00 | 0.00 | 71 | 1011.4 |
| 20260904021548 | 69 | 298 | 6.0 | 10.0 | 0.00 | 0.00 | 0.00 | 71 | 1011.2 |
| 20260904015519 | 70 | 307 | 7.0 | 11.0 | 0.00 | 0.00 | 0.00 | 70 | 1011.3 |
| 20260904015022 | 70 | 294 | 7.0 | 12.0 | 0.00 | 0.00 | 0.00 | 70 | 1011.3 |
| 20260904014020 | 70 | 262 | 9.0 | 12.0 | 0.00 | 0.00 | 0.00 | 69 | 1011.2 |
| 20260904013520 | 70 | 273 | 7.0 | 12.0 | 0.00 | 0.00 | 0.00 | 69 | 1011.3 |
| 20260904013036 | 71 | 275 | 7.0 | 13.0 | 0.00 | 0.00 | 0.00 | 69 | 1011.4 |
| 20260904012521 | 71 | 270 | 8.0 | 14.0 | 0.00 | 0.00 | 0.00 | 68 | 1011.5 |
| 20260904012018 | 71 | 298 | 9.0 | 14.0 | 0.00 | 0.00 | 0.00 | 68 | 1011.4 |
| 20260904011549 | 71 | 296 | 8.0 | 13.0 | 0.00 | 0.00 | 0.00 | 67 | 1011.4 |
| 20260904010518 | 72 | 290 | 7.0 | 15.0 | 0.00 | 0.00 | 0.00 | 66 | 1011.4 |
| 20260904005520 | 72 | 282 | 10.0 | 14.0 | 0.00 | 0.00 | 0.00 | 65 | 1011.5 |
| 20260904005017 | 73 | 283 | 8.0 | 14.0 | 0.00 | 0.00 | 0.00 | 65 | 1011.5 |
| 20260904004537 | 73 | 338 | 7.0 | 13.0 | 0.00 | 0.00 | 0.00 | 64 | 1011.4 |
| 20260904004019 | 74 | 299 | 7.0 | 14.0 | 0.00 | 0.00 | 0.00 | 64 | 1011.5 |
| 20260904002518 | 74 | 274 | 8.0 | 15.0 | 0.00 | 0.00 | 0.00 | 63 | 1011.3 |
| 20260904002020 | 74 | 285 | 9.0 | 15.0 | 0.00 | 0.00 | 0.00 | 63 | 1011.2 |
| 20260904001020 | 74 | 261 | 8.0 | 15.0 | 0.00 | 0.00 | 0.00 | 62 | 1011.3 |
| 20260904000520 | 75 | 296 | 9.0 | 15.0 | 0.00 | 0.00 | 0.00 | 62 | 1011.4 |
| 20260904000040 | 75 | 281 | 9.0 | 15.0 | 0.00 | 0.00 | 0.00 | 62 | 1011.4 |
| 20260903235523 | 75 | 285 | 9.0 | 17.0 | 0.00 | 0.00 | 0.00 | 62 | 1011.5 |
| 20260903235022 | 75 | 286 | 11.0 | 17.0 | 0.00 | 0.00 | 0.00 | 61 | 1011.4 |
| 20260903234018 | 76 | 287 | 11.0 | 16.0 | 0.00 | 0.00 | 0.00 | 59 | 1011.5 |
| 20260903233517 | 76 | 276 | 9.0 | 16.0 | 0.00 | 0.00 | 0.00 | 59 | 1011.5 |
| 20260903232020 | 79 | 264 | 9.0 | 15.0 | 0.00 | 0.00 | 0.00 | 55 | 1011.4 |
| 20260903231020 | 78 | 244 | 10.0 | 15.0 | 0.00 | 0.00 | 0.00 | 55 | 1011.5 |
| 20260903230520 | 78 | 281 | 9.0 | 14.0 | 0.00 | 0.00 | 0.00 | 58 | 1011.5 |
| 20260903225519 | 76 | 247 | 11.0 | 14.0 | 0.00 | 0.00 | 0.00 | 58 | 1011.8 |
| 20260903225018 | 76 | 269 | 9.0 | 13.0 | 0.00 | 0.00 | 0.00 | 57 | 1011.8 |
| 20260903224536 | 77 | 286 | 9.0 | 13.0 | 0.00 | 0.00 | 0.00 | 57 | 1011.9 |
| 20260903224019 | 77 | 288 | 8.0 | 12.0 | 0.00 | 0.00 | 0.00 | 57 | 1011.8 |
| 20260903223516 | 77 | 262 | 8.0 | 18.0 | 0.00 | 0.00 | 0.00 | 57 | 1011.9 |
| 20260903222518 | 76 | 209 | 4.0 | 10.0 | 0.00 | 0.00 | 0.00 | 57 | 1012.1 |
| 20260903222018 | 76 | 273 | 7.0 | 12.0 | 0.00 | 0.00 | 0.00 | 57 | 1012.0 |
| 20260903221018 | 76 | 223 | 7.0 | 11.0 | 0.00 | 0.00 | 0.00 | 56 | 1012.2 |
| 20260903220518 | 76 | 259 | 6.0 | 14.0 | 0.00 | 0.00 | 0.00 | 58 | 1012.3 |
| 20260903220053 | 77 | 273 | 7.0 | 14.0 | 0.00 | 0.00 | 0.00 | 55 | 1012.4 |
| 20260903215517 | 77 | 246 | 8.0 | 14.0 | 0.00 | 0.00 | 0.00 | 55 | 1012.5 |
| 20260903215017 | 77 | 332 | 6.0 | 14.0 | 0.00 | 0.00 | 0.00 | 55 | 1012.5 |
| 20260903214533 | 77 | 289 | 10.0 | 17.0 | 0.00 | 0.00 | 0.00 | 55 | 1012.5 |
| 20260903213519 | 76 | 268 | 10.0 | 17.0 | 0.00 | 0.00 | 0.00 | 55 | 1012.6 |
| 20260903212519 | 77 | 257 | 10.0 | 14.0 | 0.00 | 0.00 | 0.00 | 54 | 1012.6 |
| 20260903212019 | 77 | 243 | 8.0 | 15.0 | 0.00 | 0.00 | 0.00 | 54 | 1012.6 |
| 20260903211016 | 78 | 230 | 8.0 | 14.0 | 0.00 | 0.00 | 0.00 | 54 | 1012.8 |
| 20260903210518 | 78 | 260 | 10.0 | 14.0 | 0.00 | 0.00 | 0.00 | 54 | 1012.7 |
| 20260903210043 | 77 | 257 | 9.0 | 14.0 | 0.00 | 0.00 | 0.00 | 54 | 1012.8 |
| 20260903205516 | 78 | 233 | 8.0 | 17.0 | 0.00 | 0.00 | 0.00 | 53 | 1012.8 |
| 20260903204019 | 80 | 261 | 7.0 | 16.0 | 0.00 | 0.00 | 0.00 | 52 | 1012.8 |
| 20260903203518 | 79 | 265 | 9.0 | 16.0 | 0.00 | 0.00 | 0.00 | 52 | 1012.7 |
| 20260903202519 | 78 | 300 | 7.0 | 14.0 | 0.00 | 0.00 | 0.00 | 56 | 1012.8 |
| 20260903202019 | 77 | 270 | 9.0 | 14.0 | 0.00 | 0.00 | 0.00 | 54 | 1012.8 |
| 20260903201537 | 77 | 261 | 7.0 | 16.0 | 0.00 | 0.00 | 0.00 | 54 | 1012.9 |
| 20260903201016 | 78 | 259 | 11.0 | 16.0 | 0.00 | 0.00 | 0.00 | 53 | 1013.0 |
| 20260903200517 | 78 | 293 | 8.0 | 13.0 | 0.00 | 0.00 | 0.00 | 53 | 1013.0 |
| 20260903193518 | 77 | 228 | 7.0 | 13.0 | 0.00 | 0.00 | 0.00 | 53 | 1013.3 |
| 20260903192519 | 77 | 296 | 6.0 | 14.0 | 0.00 | 0.00 | 0.00 | 54 | 1013.5 |
| 20260903192021 | 77 | 267 | 8.0 | 14.0 | 0.00 | 0.00 | 0.00 | 53 | 1013.5 |
| 20260903191019 | 76 | 265 | 8.0 | 13.0 | 0.00 | 0.00 | 0.00 | 57 | 1013.6 |
| 20260903190521 | 77 | 277 | 3.0 | 15.0 | 0.00 | 0.00 | 0.00 | 57 | 1013.7 |
| 20260903185019 | 77 | 254 | 6.0 | 14.0 | 0.00 | 0.00 | 0.00 | 54 | 1013.8 |
| 20260903184018 | 78 | 190 | 8.0 | 13.0 | 0.00 | 0.00 | 0.00 | 56 | 1013.9 |
| 20260903183518 | 75 | 290 | 7.0 | 13.0 | 0.00 | 0.00 | 0.00 | 59 | 1014.1 |
| 20260903183036 | 75 | 182 | 7.0 | 12.0 | 0.00 | 0.00 | 0.00 | 59 | 1014.2 |
| 20260903182519 | 75 | 220 | 6.0 | 12.0 | 0.00 | 0.00 | 0.00 | 59 | 1014.2 |
| 20260903182018 | 75 | 275 | 5.0 | 11.0 | 0.00 | 0.00 | 0.00 | 61 | 1014.2 |
| 20260903180518 | 73 | 276 | 4.0 | 9.0 | 0.00 | 0.00 | 0.00 | 64 | 1014.2 |
| 20260903175519 | 71 | 262 | 5.0 | 10.0 | 0.00 | 0.00 | 0.00 | 65 | 1014.2 |
| 20260903175019 | 72 | 0 | 2.0 | 11.0 | 0.00 | 0.00 | 0.00 | 64 | 1014.3 |
| 20260903174018 | 71 | 250 | 5.0 | 8.0 | 0.00 | 0.00 | 0.00 | 65 | 1014.3 |
| 20260903173519 | 71 | 0 | 2.0 | 7.0 | 0.00 | 0.00 | 0.00 | 66 | 1014.3 |
| 20260903172518 | 70 | 197 | 6.0 | 11.0 | 0.00 | 0.00 | 0.00 | 68 | 1014.4 |
| 20260903172017 | 70 | 244 | 3.0 | 9.0 | 0.00 | 0.00 | 0.00 | 68 | 1014.4 |
| 20260903165523 | 69 | 273 | 5.0 | 9.0 | 0.00 | 0.00 | 0.00 | 69 | 1014.4 |
| 20260903165018 | 69 | 0 | 2.0 | 8.0 | 0.00 | 0.00 | 0.00 | 69 | 1014.5 |
| 20260903164017 | 68 | 239 | 5.0 | 8.0 | 0.00 | 0.00 | 0.00 | 70 | 1014.7 |
| 20260903163516 | 67 | 236 | 2.0 | 7.0 | 0.00 | 0.00 | 0.00 | 72 | 1014.5 |
| 20260903162520 | 66 | 251 | 2.0 | 9.0 | 0.00 | 0.00 | 0.00 | 76 | 1014.5 |
| 20260903162020 | 65 | 235 | 3.0 | 7.0 | 0.00 | 0.00 | 0.00 | 77 | 1014.6 |
| 20260903160518 | 64 | 213 | 2.0 | 4.0 | 0.00 | 0.00 | 0.00 | 79 | 1014.8 |
| 20260903155517 | 63 | 0 | 0.0 | 4.0 | 0.00 | 0.00 | 0.00 | 79 | 1014.8 |
| 20260903155017 | 63 | 155 | 1.0 | 7.0 | 0.00 | 0.00 | 0.00 | 80 | 1014.8 |
| 20260903154018 | 62 | 146 | 1.0 | 5.0 | 0.00 | 0.00 | 0.00 | 82 | 1014.9 |
| 20260903153520 | 62 | 173 | 0.0 | 4.0 | 0.00 | 0.00 | 0.00 | 82 | 1015.0 |
| 20260903152518 | 60 | 0 | 0.0 | 1.0 | 0.00 | 0.00 | 0.00 | 85 | 1015.1 |
| 20260903152021 | 60 | 0 | 0.0 | 1.0 | 0.00 | 0.00 | 0.00 | 86 | 1015.1 |
| 20260903151536 | 59 | 0 | 0.0 | 3.0 | 0.00 | 0.00 | 0.00 | 85 | 1015.1 |
| 20260903151018 | 59 | 0 | 0.0 | 3.0 | 0.00 | 0.00 | 0.00 | 85 | 1015.2 |
| 20260903145518 | 58 | 0 | 0.0 | 3.0 | 0.00 | 0.00 | 0.00 | 87 | 1015.0 |
| 20260903145020 | 58 | 0 | 0.0 | 2.0 | 0.00 | 0.00 | 0.00 | 87 | 1014.9 |
| 20260903144020 | 57 | 0 | 0.0 | 1.0 | 0.00 | 0.00 | 0.00 | 89 | 1015.0 |
| 20260903143521 | 57 | 171 | 0.0 | 2.0 | 0.00 | 0.00 | 0.00 | 89 | 1015.0 |
| 20260903142519 | 56 | 0 | 0.0 | 1.0 | 0.00 | 0.00 | 0.00 | 88 | 1014.9 |
| 20260903142019 | 56 | 0 | 0.0 | 1.0 | 0.00 | 0.00 | 0.00 | 88 | 1014.9 |
| 20260903141021 | 55 | 0 | 0.0 | 1.0 | 0.00 | 0.00 | 0.00 | 87 | 1014.8 |
| 20260903135519 | 55 | 0 | 0.0 | 1.0 | 0.00 | 0.00 | 0.00 | 87 | 1014.8 |
| 20260903135020 | 55 | 0 | 0.0 | 2.0 | 0.00 | 0.00 | 0.00 | 86 | 1014.7 |
| 20260903134021 | 55 | 0 | 0.0 | 3.0 | 0.00 | 0.00 | 0.00 | 86 | 1014.6 |
| 20260903133523 | 55 | 103 | 0.0 | 3.0 | 0.00 | 0.00 | 0.00 | 86 | 1014.6 |
| 20260903132519 | 55 | 105 | 1.0 | 3.0 | 0.00 | 0.00 | 0.00 | 86 | 1014.6 |
| 20260903132015 | 55 | 98 | 0.0 | 3.0 | 0.00 | 0.00 | 0.00 | 86 | 1014.6 |
| 20260903131018 | 56 | 82 | 0.0 | 2.0 | 0.00 | 0.00 | 0.00 | 86 | 1014.7 |
| 20260903130521 | 56 | 0 | 0.0 | 3.0 | 0.00 | 0.00 | 0.00 | 86 | 1014.7 |
| 20260903125518 | 56 | 0 | 0.0 | 3.0 | 0.00 | 0.00 | 0.00 | 86 | 1014.6 |
| 20260903125018 | 56 | 0 | 0.0 | 4.0 | 0.00 | 0.00 | 0.00 | 86 | 1014.7 |
| 20260903124535 | 56 | 0 | 1.0 | 4.0 | 0.00 | 0.00 | 0.00 | 85 | 1014.7 |
| 20260903124017 | 56 | 106 | 1.0 | 3.0 | 0.00 | 0.00 | 0.00 | 85 | 1014.7 |
| 20260903123525 | 56 | 0 | 0.0 | 2.0 | 0.00 | 0.00 | 0.00 | 85 | 1014.7 |
| 20260903122520 | 56 | 0 | 0.0 | 2.0 | 0.00 | 0.00 | 0.00 | 85 | 1014.7 |
| 20260903122018 | 56 | 0 | 0.0 | 2.0 | 0.00 | 0.00 | 0.00 | 84 | 1014.8 |
| 20260903121018 | 57 | 98 | 0.0 | 2.0 | 0.00 | 0.00 | 0.00 | 84 | 1014.7 |
| 20260903120520 | 57 | 0 | 0.0 | 2.0 | 0.00 | 0.00 | 0.00 | 84 | 1014.8 |
| 20260903115518 | 57 | 0 | 0.0 | 1.0 | 0.00 | 0.00 | 0.00 | 85 | 1014.8 |
| 20260903115018 | 57 | 0 | 0.0 | 1.0 | 0.00 | 0.00 | 0.00 | 85 | 1015.0 |
| 20260903114021 | 57 | 0 | 0.0 | 1.0 | 0.00 | 0.00 | 0.00 | 85 | 1015.0 |
| 20260903113521 | 57 | 0 | 0.0 | 2.0 | 0.00 | 0.00 | 0.00 | 84 | 1015.1 |
| 20260903112525 | 57 | 0 | 0.0 | 0.0 | 0.00 | 0.00 | 0.00 | 84 | 1015.1 |
| 20260903112017 | 57 | 0 | 0.0 | 0.0 | 0.00 | 0.00 | 0.00 | 84 | 1015.1 |
| 20260903111018 | 57 | 0 | 0.0 | 0.0 | 0.00 | 0.00 | 0.00 | 84 | 1015.2 |
| 20260903110522 | 57 | 0 | 0.0 | 1.0 | 0.00 | 0.00 | 0.00 | 83 | 1015.3 |
| 20260903105519 | 57 | 0 | 0.0 | 1.0 | 0.00 | 0.00 | 0.00 | 83 | 1015.3 |
| 20260903105019 | 58 | 0 | 0.0 | 1.0 | 0.00 | 0.00 | 0.00 | 83 | 1015.2 |
| 20260903104538 | 58 | 0 | 0.0 | 1.0 | 0.00 | 0.00 | 0.00 | 83 | 1015.3 |
| 20260903104016 | 58 | 0 | 0.0 | 1.0 | 0.00 | 0.00 | 0.00 | 83 | 1015.3 |
| 20260903103517 | 58 | 0 | 0.0 | 2.0 | 0.00 | 0.00 | 0.00 | 83 | 1015.3 |
| 20260903102518 | 58 | 161 | 0.0 | 2.0 | 0.00 | 0.00 | 0.00 | 83 | 1015.3 |
| 20260903102017 | 58 | 148 | 0.0 | 2.0 | 0.00 | 0.00 | 0.00 | 83 | 1015.3 |
| 20260903101016 | 57 | 0 | 0.0 | 3.0 | 0.00 | 0.00 | 0.00 | 83 | 1015.3 |
| 20260903100517 | 57 | 0 | 0.0 | 3.0 | 0.00 | 0.00 | 0.00 | 83 | 1015.2 |
| 20260903095520 | 58 | 0 | 0.0 | 1.0 | 0.00 | 0.00 | 0.00 | 82 | 1015.3 |
| 20260903095017 | 58 | 0 | 0.0 | 1.0 | 0.00 | 0.00 | 0.00 | 82 | 1015.4 |
| 20260903094020 | 58 | 0 | 0.0 | 1.0 | 0.00 | 0.00 | 0.00 | 83 | 1015.4 |
| 20260903093519 | 58 | 0 | 0.0 | 4.0 | 0.00 | 0.00 | 0.00 | 83 | 1015.4 |
| 20260903092522 | 58 | 0 | 2.0 | 5.0 | 0.00 | 0.00 | 0.00 | 82 | 1015.4 |
| 20260903092019 | 58 | 185 | 2.0 | 6.0 | 0.00 | 0.00 | 0.00 | 82 | 1015.4 |
| 20260903091016 | 58 | 174 | 3.0 | 6.0 | 0.00 | 0.00 | 0.00 | 82 | 1015.5 |
| 20260903090518 | 58 | 175 | 4.0 | 6.0 | 0.00 | 0.00 | 0.00 | 82 | 1015.5 |
| 20260903085517 | 58 | 182 | 3.0 | 5.0 | 0.00 | 0.00 | 0.00 | 82 | 1015.6 |
| 20260903085017 | 58 | 179 | 2.0 | 5.0 | 0.00 | 0.00 | 0.00 | 82 | 1015.7 |
| 20260903084018 | 58 | 180 | 3.0 | 5.0 | 0.00 | 0.00 | 0.00 | 81 | 1015.6 |
| 20260903083519 | 59 | 180 | 3.0 | 5.0 | 0.00 | 0.00 | 0.00 | 81 | 1015.6 |
| 20260903082520 | 59 | 163 | 0.0 | 4.0 | 0.00 | 0.00 | 0.00 | 81 | 1015.7 |
| 20260903082017 | 59 | 0 | 0.0 | 5.0 | 0.00 | 0.00 | 0.00 | 80 | 1015.6 |
| 20260903081016 | 59 | 184 | 3.0 | 6.0 | 0.00 | 0.00 | 0.00 | 80 | 1015.6 |
| 20260903080517 | 59 | 182 | 4.0 | 6.0 | 0.00 | 0.00 | 0.00 | 79 | 1015.6 |
| 20260903075523 | 59 | 167 | 1.0 | 4.0 | 0.00 | 0.00 | 0.00 | 79 | 1015.7 |
| 20260903075018 | 59 | 174 | 2.0 | 4.0 | 0.00 | 0.00 | 0.00 | 78 | 1015.7 |
| 20260903074019 | 60 | 0 | 0.0 | 3.0 | 0.00 | 0.00 | 0.00 | 78 | 1015.7 |
| 20260903073518 | 60 | 0 | 0.0 | 2.0 | 0.00 | 0.00 | 0.00 | 78 | 1015.6 |
| 20260903072518 | 60 | 0 | 0.0 | 5.0 | 0.00 | 0.00 | 0.00 | 78 | 1015.6 |
| 20260903072016 | 60 | 0 | 2.0 | 5.0 | 0.00 | 0.00 | 0.00 | 77 | 1015.7 |
| 20260903065518 | 61 | 185 | 2.0 | 5.0 | 0.00 | 0.00 | 0.00 | 76 | 1015.6 |
| 20260903065020 | 61 | 180 | 3.0 | 5.0 | 0.00 | 0.00 | 0.00 | 76 | 1015.6 |
| 20260903064019 | 61 | 207 | 3.0 | 6.0 | 0.00 | 0.00 | 0.00 | 76 | 1015.5 |
| 20260903063519 | 62 | 205 | 3.0 | 7.0 | 0.00 | 0.00 | 0.00 | 75 | 1015.5 |
| 20260903062516 | 62 | 236 | 4.0 | 7.0 | 0.00 | 0.00 | 0.00 | 75 | 1015.4 |
| 20260903062016 | 62 | 227 | 2.0 | 5.0 | 0.00 | 0.00 | 0.00 | 74 | 1015.5 |
| 20260903061020 | 62 | 211 | 2.0 | 4.0 | 0.00 | 0.00 | 0.00 | 73 | 1015.5 |
| 20260903060518 | 63 | 221 | 2.0 | 5.0 | 0.00 | 0.00 | 0.00 | 72 | 1015.5 |
| 20260903055520 | 63 | 221 | 2.0 | 7.0 | 0.00 | 0.00 | 0.00 | 71 | 1015.6 |
| 20260903055017 | 63 | 202 | 3.0 | 7.0 | 0.00 | 0.00 | 0.00 | 70 | 1015.5 |
| 20260903054016 | 64 | 191 | 2.0 | 6.0 | 0.00 | 0.00 | 0.00 | 69 | 1015.6 |
| 20260903053517 | 64 | 213 | 2.0 | 6.0 | 0.00 | 0.00 | 0.00 | 68 | 1015.6 |
| 20260903052518 | 64 | 225 | 4.0 | 8.0 | 0.00 | 0.00 | 0.00 | 67 | 1015.7 |
| 20260903052019 | 64 | 232 | 5.0 | 8.0 | 0.00 | 0.00 | 0.00 | 67 | 1015.6 |
| 20260903051016 | 65 | 236 | 4.0 | 10.0 | 0.00 | 0.00 | 0.00 | 66 | 1015.6 |
| 20260903050519 | 65 | 242 | 5.0 | 10.0 | 0.00 | 0.00 | 0.00 | 65 | 1015.6 |
| 20260903045518 | 66 | 234 | 6.0 | 9.0 | 0.00 | 0.00 | 0.00 | 65 | 1015.6 |
| 20260903045016 | 66 | 252 | 5.0 | 9.0 | 0.00 | 0.00 | 0.00 | 64 | 1015.5 |
| 20260903044019 | 66 | 233 | 4.0 | 9.0 | 0.00 | 0.00 | 0.00 | 65 | 1015.4 |
| 20260903043517 | 66 | 242 | 6.0 | 9.0 | 0.00 | 0.00 | 0.00 | 65 | 1015.3 |
| 20260903042520 | 66 | 227 | 6.0 | 10.0 | 0.00 | 0.00 | 0.00 | 64 | 1015.2 |